Simultaneous Nadir Overpasses (SNOs) Predictions

Prediction of SNOs between GOES-17 and LANDSAT-8 Satellite Orbit:

Table of predicted SNOs for the next 14.0 days since TLE Epoch: 10/22/2022
Index Date Time (GOES-17) GOES-17 Lat,Lon LANDSAT-8 Lat,Lon Distance(km) Time Diff (sec)
1 10/23/2022 19:17:01 -0.07,-137.33 -0.43,-135.76 178.91 80
2 10/24/2022 07:38:25 0.07,-137.32 -0.70,-140.95 412.73 80
3 10/26/2022 07:26:14 0.07,-137.30 -0.10,-137.99 78.82 80
4 10/28/2022 07:11:24 0.07,-137.28 0.56,-135.04 254.25 80
5 10/28/2022 19:32:39 -0.06,-137.27 0.58,-140.19 332.24 80
6 10/30/2022 19:23:08 -0.06,-137.24 -0.03,-137.23 2.96 80
7 11/01/2022 19:10:57 -0.05,-137.19 -0.65,-134.28 331.11 80
8 11/02/2022 07:32:21 0.05,-137.17 -0.46,-139.47 261.23 80
9 11/04/2022 07:17:30 0.04,-137.13 0.18,-136.51 70.09 80
